Weather History for Laramie, WY

Change the Weather History Date:

Thursday, April 24, 2014

  Actual Average Record
Temperature  
Mean Temperature 38 °F 40 °F  
Max Temperature 54 °F 54 °F 77 °F (2012)
Min Temperature 21 °F 27 °F 9 °F (1958)
Degree Days  
Heating Degree Days 27 25  
Month to date heating degree days 633 674  
Since 1 July heating degree days 7674 7909  
Cooling Degree Days 0 0  
Month to date cooling degree days 0 0  
Year to date cooling degree days 0 0  
Moisture  
Dew Point 14 °F    
Average Humidity 44    
Maximum Humidity 68    
Minimum Humidity 20    
Precipitation  
Precipitation 0.00 in 0.05 in 0.34 in (2006)
Month to date precipitation 0.13 0.81  
Year to date precipitation 1.86 2.00  
Sea Level Pressure  
Sea Level Pressure 29.89 in    
Wind  
Wind Speed 18 mph (West)    
Max Wind Speed 31 mph    
Max Gust Speed 42 mph    
Visibility 10 miles    
Events      
T = Trace of Precipitation, MM = Missing Value Source: NWS Daily Summary

Daily Weather History Graph

Daily Weather History Graph

Search for Another Location

Airport:

Trip Planner

Search our weather history database for the weather conditions in past years. The results will help you decide how hot, cold, wet, or windy it might be!

Date:

Astronomy

Apr. 24, 2014 Rise Set
Actual Time 6:09 AM MDT 7:52 PM MDT
Civil Twilight 5:40 AM MDT 8:22 PM MDT
Nautical Twilight 5:04 AM MDT 8:57 PM MDT
Astronomical Twilight 4:26 AM MDT 9:36 PM MDT
Moon 3:25 AM MDT (4/24) 3:08 PM MDT (4/24)
Length of Visible Light 14h 41m
Length of Day
13h 43m
Waning Crescent, 24% of the Moon is Illuminated
Apr 24
Waning Crescent
Apr 29
New
May 6
First Quarter
May 14
Full
May 21
Last Quarter

Hourly Weather History & Observations

Time (MDT) Temp. Windchill Dew Point Humidity Pressure Visibility Wind Dir Wind Speed Gust Speed Precip Events Conditions
12:53 AM 27.0 °F 15.6 °F 8.1 °F 45% 29.89 in 10.0 mi WNW 13.8 mph - N/A   Clear
1:53 AM 26.1 °F 14.0 °F 10.0 °F 51% 29.91 in 10.0 mi WNW 15.0 mph - N/A   Clear
2:53 AM 27.0 °F 15.6 °F 10.9 °F 51% 29.89 in 10.0 mi WNW 13.8 mph - N/A   Clear
3:53 AM 24.1 °F 13.7 °F 10.9 °F 57% 29.94 in 10.0 mi WSW 10.4 mph - N/A   Clear
4:53 AM 21.9 °F 10.4 °F 10.9 °F 63% 29.96 in 10.0 mi West 11.5 mph - N/A   Clear
5:53 AM 21.9 °F 13.4 °F 12.0 °F 66% 29.96 in 10.0 mi SSW 6.9 mph - N/A   Clear
6:53 AM 27.0 °F 16.1 °F 14.0 °F 58% 29.97 in 10.0 mi SW 12.7 mph - N/A   Clear
7:53 AM 33.1 °F 21.2 °F 14.0 °F 46% 29.97 in 10.0 mi WSW 20.7 mph - N/A   Clear
8:53 AM 37.0 °F 28.5 °F 14.0 °F 39% 29.96 in 10.0 mi WNW 13.8 mph 23.0 mph N/A   Clear
9:53 AM 41.0 °F 33.9 °F 12.9 °F 32% 29.93 in 10.0 mi West 12.7 mph 20.7 mph N/A   Clear
10:53 AM 44.1 °F 35.4 °F 10.9 °F 26% 29.91 in 10.0 mi West 21.9 mph 26.5 mph N/A   Clear
11:53 AM 46.0 °F 39.3 °F 12.9 °F 26% 29.90 in 10.0 mi West 16.1 mph - N/A   Clear
12:53 PM 48.9 °F - 12.9 °F 24% 29.87 in 10.0 mi West 26.5 mph 32.2 mph N/A   Clear
1:53 PM 53.1 °F - 15.1 °F 22% 29.83 in 10.0 mi West 23.0 mph 31.1 mph N/A   Clear
2:53 PM 53.1 °F - 14.0 °F 21% 29.82 in 10.0 mi WSW 29.9 mph 35.7 mph N/A   Clear
3:53 PM 51.1 °F - 14.0 °F 23% 29.83 in 10.0 mi West 24.2 mph 34.5 mph N/A   Clear
4:53 PM 50.0 °F - 15.1 °F 25% 29.86 in 10.0 mi WSW 26.5 mph - N/A   Mostly Cloudy
5:53 PM 51.1 °F - 17.1 °F 26% 29.86 in 10.0 mi West 21.9 mph 28.8 mph N/A   Overcast
6:53 PM 50.0 °F - 16.0 °F 26% 29.85 in 10.0 mi WSW 15.0 mph - N/A   Mostly Cloudy
7:53 PM 48.0 °F - 18.0 °F 30% 29.82 in 10.0 mi SSW 13.8 mph - N/A   Overcast
8:53 PM 46.9 °F - 17.1 °F 30% 29.84 in 10.0 mi West 23.0 mph - N/A   Clear
9:53 PM 45.0 °F 37.4 °F 18.0 °F 34% 29.84 in 10.0 mi West 18.4 mph - N/A   Clear
10:53 PM 43.0 °F 36.0 °F 21.0 °F 42% 29.84 in 10.0 mi West 13.8 mph - N/A   Partly Cloudy
11:53 PM 42.1 °F 32.8 °F 26.1 °F 53% 29.86 in 10.0 mi West 21.9 mph 29.9 mph N/A   Overcast